Wind_Speed
11 10 10 9 8 7 7 6 7 7 7 7 7 7 7 7 6 6 5 5 5 5 5 5 5 5 5 4 4 4 5 5 6 5 5 5 5 5 5 4 5 4 3
10 10 9 9 8 7 6 6 6 6 6 6 6 6 7 7 7 6 6 5 4 4 5 5 5 5 4 4 4 5 5 4 5 5 6 5 5 5 4 4 5 5 4
10 10 9 9 9 7 6 5 5 6 6 6 6 7 7 7 6 6 5 5 5 5 5 5 5 5 5 5 5 5 5 4 5 5 5 5 5 5 4 5 5 5 4
9 9 9 9 8 8 6 5 5 5 5 5 6 6 6 6 6 5 5 4 3 3 4 5 5 5 5 5 5 5 5 5 4 4 4 4 4 4 5 6 6 6 5
9 8 9 9 8 8 7 5 5 5 5 5 5 5 5 5 5 5 5 4 3 3 4 5 4 5 4 5 5 5 5 4 3 3 4 4 4 4 4 5 6 6 6
8 8 9 9 8 8 8 6 5 5 5 4 5 5 5 5 5 5 5 4 4 3 4 4 3 3 3 4 4 4 4 4 3 3 4 4 4 4 5 5 6 7 6
8 8 9 8 8 8 8 7 6 6 5 3 4 5 5 5 4 4 4 4 4 3 3 3 3 3 3 3 3 3 3 3 3 3 3 4 4 5 5 5 6 6 7
7 8 8 8 7 7 7 7 7 6 5 4 4 4 4 4 4 4 4 4 3 4 4 3 3 3 3 3 2 2 3 3 3 2 3 3 5 6 6 6 6 6 7
7 8 7 7 7 7 7 7 7 6 5 4 3 3 3 3 3 3 3 3 2 2 3 3 2 3 2 2 1 2 2 3 3 3 3 4 4 4 5 5 5 5 6
7 8 7 6 6 6 7 7 7 6 5 4 3 2 2 1 1 2 2 2 2 2 2 2 2 2 2 1 1 1 2 2 3 3 4 5 5 5 5 6 6 6 6
6 6 6 6 6 6 6 6 6 6 6 4 3 2 1 2 2 2 2 2 2 2 2 1 1 1 1 1 1 1 2 2 3 4 5 5 6 6 6 7 7 8 8
6 6 5 5 5 5 6 6 6 6 6 5 3 3 2 1 1 1 1 1 1 1 1 1 1 1 2 2 2 2 3 4 4 5 6 6 7 7 7 8 8 9 9
5 5 5 4 5 5 5 6 6 6 6 5 4 2 2 1 1 0 1 1 1 1 1 2 2 3 3 3 3 3 4 5 5 6 6 6 7 8 8 9 9 10 11
5 5 5 4 4 5 5 5 6 6 7 5 5 3 2 1 1 0 1 1 1 1 1 1 3 3 3 4 4 4 5 6 6 6 7 8 8 9 9 10 11 11 12
6 6 6 5 5 6 6 5 5 6 6 5 5 4 3 2 1 1 1 2 1 2 2 3 4 4 4 4 5 5 6 7 7 8 9 9 9 10 10 10 11 11 11
7 7 7 7 7 7 6 5 5 5 6 5 5 4 4 2 2 2 2 3 3 3 3 4 4 4 4 5 6 6 7 8 8 9 10 10 10 10 10 10 10 10 11
9 9 8 8 8 8 7 6 6 6 6 5 5 4 4 3 2 3 3 4 4 5 4 4 4 5 5 6 6 7 7 8 9 9 10 10 10 10 11 11 11 11 12
11 11 10 9 8 8 8 8 7 6 6 5 5 4 4 3 3 3 4 5 5 5 5 5 5 6 6 6 7 8 8 8 9 9 10 10 10 10 11 11 11 12 12
12 12 11 11 10 9 9 9 8 8 7 6 6 6 5 5 4 4 5 6 6 6 7 7 6 7 7 8 8 8 8 9 9 9 10 9 10 10 11 11 11 11 12
14 13 13 12 12 11 11 10 10 9 9 8 8 7 7 6 6 5 5 5 6 7 8 8 8 8 8 8 8 8 8 8 9 9 10 10 10 11 11 12 12 12 12
16 15 14 14 14 14 13 12 11 11 11 10 10 9 8 8 7 7 6 6 6 6 7 7 8 8 9 9 10 10 10 9 9 9 10 10 10 10 10 11 11 11 11
18 17 17 16 16 16 15 14 13 13 13 12 12 11 10 9 9 9 8 8 7 7 8 8 9 9 9 10 10 11 11 10 10 10 11 10 9 10 10 10 10 11 11
19 19 19 18 18 17 16 16 16 15 15 14 13 13 11 11 10 10 10 10 9 9 9 10 10 10 10 11 11 11 11 11 10 11 12 11 10 10 10 10 11 12 12
20 20 20 21 20 20 19 18 18 17 17 16 15 14 13 13 12 12 12 12 11 10 10 11 11 11 11 11 11 11 11 11 11 11 12 12 11 11 12 12 12 13 13
22 22 22 22 23 22 22 21 21 20 19 19 18 16 16 15 14 14 14 14 13 12 12 11 11 10 10 11 11 11 11 12 12 12 12 12 12 13 14 14 14 14 14
24 24 24 24 23 23 23 23 23 21 21 21 20 19 18 17 16 16 15 15 14 14 13 12 12 11 12 11 11 11 12 12 12 12 12 13 13 14 15 16 16 16 16
Wind_Direction
41 42 43 45 46 51 56 60 62 66 69 70 68 70 79 76 79 90 103 112 118 130 137 143 152 159 162 163 171 173 171 174 180 179 182 190 196 189 187 196 206 205 205
38 39 40 41 42 49 54 57 61 67 68 68 67 73 78 75 78 84 104 114 117 133 145 146 149 156 163 167 174 173 174 178 179 184 188 192 198 194 202 204 204 205 196
39 40 41 40 39 41 46 53 62 64 66 67 69 71 78 75 76 83 92 106 120 137 147 145 146 156 162 164 167 169 168 171 177 183 187 194 194 199 205 204 200 205 205
36 37 38 38 39 37 37 46 53 58 60 60 64 67 69 67 67 73 80 83 94 124 145 157 157 155 160 161 163 170 171 168 172 188 190 198 205 213 208 206 205 207 216
37 36 36 35 36 35 37 43 46 50 54 59 68 68 70 68 64 61 63 70 85 100 123 151 154 155 159 163 163 167 172 177 188 207 207 207 214 222 217 212 215 216 220
39 35 33 34 39 39 38 36 36 39 46 56 68 72 74 74 71 66 67 74 89 108 118 124 134 146 156 161 169 170 182 188 196 211 219 215 224 230 219 215 220 222 224
35 31 31 32 38 40 38 36 34 37 45 64 73 76 79 77 74 70 65 79 87 113 122 133 129 131 136 157 172 181 189 194 195 202 207 217 227 232 231 232 229 229 228
26 21 25 30 32 34 32 32 35 33 36 47 70 78 79 75 71 76 82 90 88 109 131 137 144 139 143 153 161 173 184 189 194 205 212 230 238 241 242 237 232 235 237
19 15 17 23 27 29 26 28 30 27 29 41 63 80 86 84 73 70 86 86 86 91 121 141 146 150 151 148 155 161 182 199 210 221 229 238 247 252 250 249 237 238 240
12 12 14 17 23 23 26 28 30 29 28 33 53 77 83 85 64 66 92 94 94 100 116 135 146 146 149 144 152 173 198 222 241 247 249 253 255 258 255 254 250 248 245
5 8 8 12 20 19 23 27 27 28 27 30 43 58 60 70 80 81 94 103 100 113 126 130 142 146 163 206 248 237 241 250 257 260 258 260 261 261 259 254 253 254 252
352 359 359 4 11 14 18 19 20 22 24 30 32 32 32 50 75 94 106 113 112 140 171 203 250 274 250 246 256 263 269 269 263 262 262 264 262 261 261 256 256 255 255
334 342 344 352 355 358 3 2 5 10 15 18 18 17 6 12 22 8 158 151 141 189 224 254 280 283 271 261 263 267 273 275 267 262 261 263 264 263 262 261 260 255 255
317 318 317 326 336 340 347 350 355 359 8 8 4 355 338 336 339 313 225 193 238 240 256 289 299 288 281 270 276 276 273 272 270 261 263 267 268 268 266 266 265 259 258
301 302 300 310 317 324 332 340 341 346 352 353 354 353 336 312 295 284 278 258 254 255 269 290 306 294 287 280 286 284 276 275 272 267 271 272 273 273 273 271 265 260 261
294 294 293 298 303 311 317 327 338 345 345 347 348 345 346 307 279 277 280 278 280 283 286 290 297 295 288 285 289 282 280 281 277 272 273 274 275 273 273 272 266 262 261
285 288 288 285 291 298 305 314 322 334 337 340 343 334 338 322 288 288 283 282 284 286 287 288 294 295 291 287 289 283 282 284 276 275 276 277 275 272 269 269 268 265 263
281 282 279 277 281 287 294 299 305 313 320 324 327 320 316 318 301 294 289 285 283 284 283 285 287 293 296 292 291 283 284 284 278 276 278 278 277 276 272 269 268 266 262
280 281 274 270 273 279 285 288 291 294 298 303 306 304 299 302 309 303 290 288 285 285 285 287 286 290 295 293 291 289 287 285 280 278 279 278 279 277 274 272 269 268 264
277 278 273 268 269 273 275 279 283 284 285 289 292 294 291 289 292 298 296 295 291 289 289 288 287 289 289 287 289 290 293 293 285 282 281 280 279 276 275 274 273 271 269
275 276 270 267 270 268 269 272 276 278 279 281 283 283 285 284 282 284 286 287 289 291 294 293 292 291 285 283 289 289 288 290 290 287 283 281 276 276 277 275 275 277 274
271 273 270 270 268 266 266 268 271 273 275 277 279 279 282 281 278 277 279 281 283 288 290 293 292 293 291 288 291 291 289 287 286 286 289 287 279 276 274 271 273 275 276
268 269 267 269 266 264 265 268 271 271 272 273 275 275 279 279 277 275 276 280 282 285 288 290 292 291 290 287 287 289 289 288 286 284 284 281 278 277 275 276 276 275 276
267 266 266 267 263 262 264 267 269 268 268 271 273 274 276 277 274 272 274 278 280 283 286 289 293 290 289 288 286 286 286 286 284 284 285 280 274 276 275 276 279 279 279
264 265 264 264 261 260 263 264 264 265 266 267 268 269 272 272 271 270 271 273 277 281 284 287 291 290 289 290 288 286 283 285 285 285 283 281 280 279 278 277 279 278 280
262 263 262 262 260 259 262 263 261 263 265 264 264 264 267 270 269 269 269 271 275 278 279 283 287 288 290 291 290 287 286 286 288 287 288 286 281 280 279 277 277 277 277
Height
5896 5895 5894 5892 5891 5890 5889 5888 5887 5886 5885 5884 5883 5882 5881 5880 5880 5879 5879 5879 5880 5880 5880 5879 5880 5881 5882 5882 5882 5883 5883 5884 5885 5886 5886 5887 5887 5888 5888 5889 5889 5889 5890
5897 5895 5894 5893 5892 5890 5889 5888 5887 5886 5885 5884 5883 5882 5881 5880 5880 5880 5879 5879 5879 5880 5880 5880 5880 5881 5881 5882 5882 5883 5884 5884 5885 5885 5886 5887 5887 5887 5888 5888 5888 5889 5889
5897 5896 5895 5893 5892 5891 5890 5888 5887 5886 5885 5884 5883 5882 5882 5881 5880 5880 5880 5880 5879 5879 5879 5880 5880 5881 5881 5882 5882 5883 5883 5884 5884 5885 5885 5886 5887 5887 5887 5888 5888 5888 5889
5898 5896 5895 5894 5892 5891 5890 5889 5888 5886 5885 5884 5883 5883 5882 5881 5881 5880 5880 5880 5879 5879 5879 5880 5880 5881 5881 5882 5882 5883 5883 5884 5884 5885 5885 5886 5886 5886 5887 5887 5887 5888 5888
5898 5897 5896 5894 5893 5891 5890 5889 5888 5887 5885 5884 5884 5883 5882 5882 5881 5881 5880 5880 5880 5879 5879 5879 5880 5881 5881 5882 5882 5883 5884 5884 5885 5885 5885 5885 5886 5886 5886 5887 5887 5887 5888
5899 5897 5896 5895 5893 5892 5890 5889 5888 5887 5885 5885 5884 5883 5882 5882 5881 5881 5880 5880 5879 5879 5879 5879 5880 5881 5882 5882 5883 5883 5884 5884 5884 5885 5885 5885 5886 5886 5886 5886 5886 5887 5887
5899 5898 5897 5895 5894 5892 5891 5890 5888 5887 5886 5884 5884 5883 5883 5882 5881 5881 5880 5880 5879 5879 5879 5879 5880 5881 5882 5882 5882 5883 5883 5884 5884 5884 5884 5885 5885 5885 5885 5885 5886 5886 5886
5900 5898 5897 5895 5894 5893 5892 5890 5889 5887 5886 5885 5884 5883 5883 5883 5882 5881 5881 5880 5880 5879 5879 5880 5880 5881 5881 5882 5882 5883 5883 5884 5884 5884 5884 5884 5884 5884 5884 5884 5884 5885 5885
5900 5899 5897 5896 5895 5893 5892 5891 5889 5888 5886 5885 5884 5884 5883 5883 5882 5882 5881 5881 5881 5880 5880 5880 5880 5881 5881 5881 5882 5882 5883 5883 5883 5883 5883 5883 5884 5884 5884 5883 5883 5884 5884
5900 5899 5897 5896 5895 5894 5892 5891 5890 5888 5887 5886 5885 5884 5883 5883 5882 5882 5881 5881 5881 5881 5881 5881 5881 5881 5881 5882 5882 5882 5882 5882 5882 5882 5882 5882 5882 5883 5882 5882 5882 5883 5883
5900 5898 5897 5896 5895 5894 5893 5891 5890 5888 5887 5886 5885 5884 5883 5883 5882 5882 5881 5881 5881 5881 5881 5881 5880 5881 5881 5881 5881 5881 5881 5881 5881 5881 5881 5881 5881 5881 5881 5881 5881 5881 5881
5900 5898 5897 5896 5895 5894 5893 5892 5890 5889 5887 5886 5885 5884 5883 5882 5882 5881 5881 5881 5881 5881 5881 5881 5880 5880 5880 5880 5880 5880 5880 5880 5879 5879 5879 5879 5879 5879 5879 5879 5879 5879 5879
5899 5898 5897 5896 5895 5894 5893 5892 5890 5889 5887 5886 5885 5884 5883 5882 5882 5881 5881 5881 5880 5880 5880 5880 5880 5879 5879 5879 5879 5879 5879 5878 5878 5878 5878 5877 5877 5877 5877 5877 5877 5877 5877
5898 5898 5897 5896 5895 5894 5893 5892 5890 5889 5888 5886 5885 5884 5883 5882 5881 5881 5880 5880 5880 5880 5879 5879 5879 5878 5878 5878 5878 5877 5877 5877 5876 5876 5875 5875 5875 5875 5875 5875 5875 5875 5875
5898 5897 5896 5895 5894 5893 5892 5891 5890 5889 5887 5886 5884 5883 5883 5882 5881 5881 5880 5880 5879 5879 5879 5878 5878 5877 5877 5877 5876 5876 5875 5875 5874 5874 5873 5873 5873 5873 5873 5872 5872 5872 5872
5896 5896 5895 5894 5893 5892 5892 5890 5889 5888 5886 5885 5884 5883 5882 5881 5881 5880 5880 5880 5879 5878 5878 5878 5877 5877 5876 5875 5875 5874 5874 5873 5872 5872 5871 5871 5871 5870 5870 5870 5870 5869 5869
5895 5894 5893 5892 5892 5891 5890 5889 5888 5887 5886 5884 5883 5882 5881 5881 5880 5880 5879 5879 5878 5878 5877 5877 5876 5876 5875 5874 5873 5872 5872 5871 5870 5870 5869 5869 5868 5868 5868 5867 5867 5867 5867
5893 5892 5891 5891 5890 5889 5889 5888 5887 5886 5885 5884 5883 5882 5881 5880 5879 5879 5878 5877 5877 5876 5876 5876 5875 5875 5874 5873 5872 5871 5870 5869 5869 5868 5867 5866 5866 5865 5865 5865 5864 5864 5863
5890 5889 5889 5888 5888 5887 5887 5886 5886 5885 5884 5883 5882 5881 5880 5879 5878 5877 5877 5876 5876 5875 5875 5874 5873 5873 5872 5871 5870 5869 5868 5867 5866 5866 5865 5864 5863 5863 5862 5862 5861 5861 5860
5887 5887 5886 5886 5885 5885 5885 5884 5884 5883 5882 5881 5880 5879 5879 5878 5877 5876 5875 5875 5874 5874 5873 5872 5872 5871 5870 5869 5868 5867 5866 5865 5864 5864 5863 5862 5861 5860 5860 5859 5858 5858 5857
5884 5883 5883 5883 5883 5882 5882 5882 5881 5881 5880 5879 5879 5878 5877 5876 5875 5874 5874 5873 5872 5872 5871 5870 5870 5869 5868 5867 5866 5865 5864 5863 5862 5861 5860 5859 5859 5858 5857 5857 5856 5855 5855
5880 5879 5879 5879 5879 5879 5879 5879 5878 5878 5877 5877 5876 5875 5874 5874 5873 5872 5872 5871 5870 5870 5869 5869 5868 5867 5866 5865 5864 5863 5862 5861 5860 5859 5858 5857 5856 5855 5855 5854 5853 5853 5852
5875 5875 5875 5875 5875 5875 5875 5875 5875 5874 5874 5874 5873 5872 5872 5871 5870 5870 5869 5868 5868 5867 5867 5866 5865 5864 5863 5862 5861 5860 5859 5858 5858 5857 5856 5855 5854 5853 5852 5852 5851 5850 5850
5870 5870 5870 5870 5870 5870 5870 5871 5871 5871 5870 5870 5869 5869 5868 5868 5867 5867 5866 5865 5865 5864 5864 5863 5862 5861 5861 5860 5859 5857 5857 5856 5855 5854 5853 5852 5851 5850 5850 5849 5849 5848 5847
5864 5864 5865 5865 5865 5865 5866 5866 5866 5866 5866 5866 5865 5865 5865 5864 5864 5863 5863 5862 5862 5861 5861 5860 5859 5858 5857 5857 5855 5854 5853 5852 5852 5851 5850 5849 5848 5847 5847 5846 5846 5845 5845
5858 5858 5859 5859 5860 5860 5860 5860 5861 5861 5861 5861 5861 5861 5860 5860 5860 5859 5859 5858 5858 5858 5857 5857 5856 5855 5854 5853 5852 5851 5850 5849 5848 5847 5846 5845 5844 5844 5843 5842 5842 5841 5841